| time (UTC) | temp F | wind direction | speed MPH | gust MPH | rain 1hr in | rain 24hr in | rain mn in | humidity % | barometer mb |
| 20260510144833 | 58 | 132 | 1.0 | 4.0 | 0.00 | 0.00 | 0.00 | 41 | 1017.9 |
| 20260510144333 | 58 | 0 | 0.0 | 0.0 | 0.00 | 0.00 | 0.00 | 43 | 1017.9 |
| 20260510143833 | 57 | 0 | 0.0 | 0.0 | 0.00 | 0.00 | 0.00 | 41 | 1017.9 |
| 20260510143333 | 57 | 0 | 0.0 | 0.0 | 0.00 | 0.00 | 0.00 | 42 | 1018.0 |
| 20260510142833 | 57 | 0 | 0.0 | 0.0 | 0.00 | 0.00 | 0.00 | 44 | 1018.0 |
| 20260510142333 | 56 | 173 | 0.0 | 1.0 | 0.00 | 0.00 | 0.00 | 44 | 1017.9 |
| 20260510141833 | 56 | 173 | 0.0 | 2.0 | 0.00 | 0.00 | 0.00 | 45 | 1018.0 |
| 20260510141333 | 56 | 170 | 0.0 | 2.0 | 0.00 | 0.00 | 0.00 | 46 | 1017.9 |
| 20260510140833 | 56 | 133 | 0.0 | 3.0 | 0.00 | 0.00 | 0.00 | 49 | 1017.7 |
| 20260510140333 | 56 | 145 | 0.0 | 3.0 | 0.00 | 0.00 | 0.00 | 51 | 1017.7 |
| 20260510135833 | 55 | 156 | 0.0 | 3.0 | 0.00 | 0.00 | 0.00 | 49 | 1017.6 |
| 20260510135333 | 55 | 156 | 1.0 | 3.0 | 0.00 | 0.00 | 0.00 | 44 | 1017.6 |
| 20260510134833 | 55 | 158 | 0.0 | 4.0 | 0.00 | 0.00 | 0.00 | 48 | 1017.6 |
| 20260510134333 | 54 | 159 | 1.0 | 4.0 | 0.00 | 0.00 | 0.00 | 49 | 1017.4 |
| 20260510133833 | 54 | 192 | 1.0 | 3.0 | 0.00 | 0.00 | 0.00 | 49 | 1017.3 |
| 20260510133333 | 54 | 233 | 0.0 | 3.0 | 0.00 | 0.00 | 0.00 | 52 | 1017.3 |
| 20260510132833 | 53 | 249 | 1.0 | 3.0 | 0.00 | 0.00 | 0.00 | 50 | 1017.2 |
| 20260510132333 | 53 | 177 | 0.0 | 2.0 | 0.00 | 0.00 | 0.00 | 50 | 1017.2 |
| 20260510131833 | 53 | 168 | 0.0 | 2.0 | 0.00 | 0.00 | 0.00 | 53 | 1017.2 |
| 20260510131332 | 52 | 169 | 0.0 | 2.0 | 0.00 | 0.00 | 0.00 | 55 | 1017.3 |
| 20260510130833 | 52 | 173 | 0.0 | 2.0 | 0.00 | 0.00 | 0.00 | 56 | 1017.2 |
| 20260510130333 | 51 | 241 | 0.0 | 2.0 | 0.00 | 0.00 | 0.00 | 56 | 1017.1 |
| 20260510125833 | 50 | 241 | 0.0 | 3.0 | 0.00 | 0.00 | 0.00 | 56 | 1017.0 |
| 20260510125333 | 49 | 160 | 0.0 | 5.0 | 0.00 | 0.00 | 0.00 | 61 | 1016.9 |
| 20260510124833 | 48 | 170 | 1.0 | 5.0 | 0.00 | 0.00 | 0.00 | 65 | 1016.8 |
| 20260510124333 | 47 | 238 | 0.0 | 1.0 | 0.00 | 0.00 | 0.00 | 76 | 1016.7 |
| 20260510123833 | 46 | 238 | 0.0 | 1.0 | 0.00 | 0.00 | 0.00 | 80 | 1016.7 |
| 20260510123333 | 45 | 0 | 0.0 | 0.0 | 0.00 | 0.00 | 0.00 | 89 | 1016.6 |
| 20260510122333 | 44 | 0 | 0.0 | 0.0 | 0.00 | 0.00 | 0.00 | 92 | 1016.5 |
| 20260510121833 | 43 | 0 | 0.0 | 0.0 | 0.00 | 0.00 | 0.00 | 92 | 1016.5 |
| 20260510121333 | 42 | 0 | 0.0 | 0.0 | 0.00 | 0.00 | 0.00 | 92 | 1016.4 |
| 20260510120833 | 42 | 0 | 0.0 | 0.0 | 0.00 | 0.00 | 0.00 | 91 | 1016.3 |
| 20260510120333 | 41 | 0 | 0.0 | 0.0 | 0.00 | 0.00 | 0.00 | 91 | 1016.3 |
| 20260510115833 | 41 | 0 | 0.0 | 0.0 | 0.00 | 0.00 | 0.00 | 90 | 1016.2 |
| 20260510115333 | 40 | 0 | 0.0 | 0.0 | 0.00 | 0.00 | 0.00 | 90 | 1016.1 |
| 20260510114833 | 40 | 0 | 0.0 | 0.0 | 0.00 | 0.00 | 0.00 | 89 | 1016.1 |
| 20260510114333 | 40 | 0 | 0.0 | 0.0 | 0.00 | 0.00 | 0.00 | 89 | 1016.0 |
| 20260510113833 | 40 | 0 | 0.0 | 0.0 | 0.00 | 0.00 | 0.00 | 89 | 1016.0 |
| 20260510113333 | 40 | 0 | 0.0 | 0.0 | 0.00 | 0.00 | 0.00 | 88 | 1016.0 |
| 20260510112833 | 40 | 0 | 0.0 | 0.0 | 0.00 | 0.00 | 0.00 | 88 | 1015.9 |
| 20260510112333 | 40 | 0 | 0.0 | 0.0 | 0.00 | 0.00 | 0.00 | 87 | 1015.9 |
| 20260510111833 | 40 | 0 | 0.0 | 0.0 | 0.00 | 0.00 | 0.00 | 87 | 1015.7 |
| 20260510111333 | 40 | 0 | 0.0 | 0.0 | 0.00 | 0.00 | 0.00 | 87 | 1015.5 |
| 20260510110833 | 40 | 0 | 0.0 | 0.0 | 0.00 | 0.00 | 0.00 | 86 | 1015.5 |
| 20260510110333 | 40 | 0 | 0.0 | 0.0 | 0.00 | 0.00 | 0.00 | 86 | 1015.5 |
| 20260510105833 | 40 | 0 | 0.0 | 0.0 | 0.00 | 0.00 | 0.00 | 86 | 1015.4 |
| 20260510105333 | 40 | 0 | 0.0 | 0.0 | 0.00 | 0.00 | 0.00 | 85 | 1015.3 |
| 20260510104833 | 40 | 0 | 0.0 | 0.0 | 0.00 | 0.00 | 0.00 | 85 | 1015.3 |
| 20260510103833 | 41 | 0 | 0.0 | 0.0 | 0.00 | 0.00 | 0.00 | 85 | 1015.2 |
| 20260510103333 | 41 | 0 | 0.0 | 0.0 | 0.00 | 0.00 | 0.00 | 84 | 1015.1 |
| 20260510102833 | 41 | 0 | 0.0 | 0.0 | 0.00 | 0.00 | 0.00 | 84 | 1015.0 |
| 20260510102333 | 41 | 0 | 0.0 | 0.0 | 0.00 | 0.00 | 0.00 | 84 | 1015.0 |
| 20260510101833 | 41 | 0 | 0.0 | 0.0 | 0.00 | 0.00 | 0.00 | 84 | 1014.8 |
| 20260510101333 | 41 | 0 | 0.0 | 0.0 | 0.00 | 0.00 | 0.00 | 83 | 1014.8 |
| 20260510100833 | 41 | 0 | 0.0 | 0.0 | 0.00 | 0.00 | 0.00 | 83 | 1014.7 |
| 20260510100333 | 42 | 0 | 0.0 | 0.0 | 0.00 | 0.00 | 0.00 | 83 | 1014.7 |
| 20260510095833 | 42 | 0 | 0.0 | 0.0 | 0.00 | 0.00 | 0.00 | 82 | 1014.7 |
| 20260510095333 | 42 | 0 | 0.0 | 0.0 | 0.00 | 0.00 | 0.00 | 82 | 1014.6 |
| 20260510094833 | 42 | 0 | 0.0 | 0.0 | 0.00 | 0.00 | 0.00 | 81 | 1014.6 |
| 20260510094333 | 42 | 0 | 0.0 | 0.0 | 0.00 | 0.00 | 0.00 | 81 | 1014.6 |
| 20260510093833 | 42 | 0 | 0.0 | 0.0 | 0.00 | 0.00 | 0.00 | 80 | 1014.5 |
| 20260510093333 | 43 | 0 | 0.0 | 0.0 | 0.00 | 0.00 | 0.00 | 80 | 1014.5 |
| 20260510092833 | 43 | 0 | 0.0 | 0.0 | 0.00 | 0.00 | 0.00 | 79 | 1014.6 |
| 20260510092333 | 43 | 0 | 0.0 | 0.0 | 0.00 | 0.00 | 0.00 | 79 | 1014.6 |
| 20260510091833 | 43 | 0 | 0.0 | 0.0 | 0.00 | 0.00 | 0.00 | 78 | 1014.6 |
| 20260510091333 | 44 | 0 | 0.0 | 0.0 | 0.00 | 0.00 | 0.00 | 78 | 1014.5 |
| 20260510090833 | 44 | 0 | 0.0 | 0.0 | 0.00 | 0.00 | 0.00 | 77 | 1014.4 |
| 20260510090333 | 44 | 0 | 0.0 | 0.0 | 0.00 | 0.00 | 0.00 | 76 | 1014.3 |
| 20260510085832 | 44 | 0 | 0.0 | 0.0 | 0.00 | 0.00 | 0.00 | 76 | 1014.2 |
| 20260510085333 | 45 | 0 | 0.0 | 0.0 | 0.00 | 0.00 | 0.00 | 75 | 1014.1 |
| 20260510084833 | 45 | 0 | 0.0 | 0.0 | 0.00 | 0.00 | 0.00 | 75 | 1014.1 |
| 20260510084333 | 45 | 0 | 0.0 | 0.0 | 0.00 | 0.00 | 0.00 | 74 | 1014.1 |
| 20260510083833 | 46 | 0 | 0.0 | 0.0 | 0.00 | 0.00 | 0.00 | 74 | 1014.0 |
| 20260510083333 | 46 | 0 | 0.0 | 0.0 | 0.00 | 0.00 | 0.00 | 73 | 1013.9 |
| 20260510082833 | 46 | 0 | 0.0 | 0.0 | 0.00 | 0.00 | 0.00 | 73 | 1013.9 |
| 20260510082333 | 46 | 0 | 0.0 | 0.0 | 0.00 | 0.00 | 0.00 | 72 | 1013.9 |
| 20260510081833 | 46 | 0 | 0.0 | 0.0 | 0.00 | 0.00 | 0.00 | 72 | 1013.8 |
| 20260510081333 | 46 | 258 | 0.0 | 1.0 | 0.00 | 0.00 | 0.00 | 72 | 1013.7 |
| 20260510080833 | 46 | 258 | 0.0 | 1.0 | 0.00 | 0.00 | 0.00 | 72 | 1013.5 |
| 20260510080333 | 47 | 0 | 0.0 | 0.0 | 0.00 | 0.00 | 0.00 | 72 | 1013.4 |
| 20260510075833 | 47 | 0 | 0.0 | 0.0 | 0.00 | 0.00 | 0.00 | 71 | 1013.2 |
| 20260510075333 | 47 | 0 | 0.0 | 0.0 | 0.00 | 0.00 | 0.00 | 71 | 1013.3 |
| 20260510074833 | 47 | 0 | 0.0 | 0.0 | 0.00 | 0.00 | 0.00 | 71 | 1013.3 |
| 20260510074333 | 47 | 0 | 0.0 | 0.0 | 0.00 | 0.00 | 0.00 | 70 | 1013.3 |
| 20260510073833 | 47 | 278 | 0.0 | 4.0 | 0.00 | 0.00 | 0.00 | 70 | 1013.2 |
| 20260510073333 | 47 | 278 | 0.0 | 4.0 | 0.00 | 0.00 | 0.00 | 71 | 1013.1 |
| 20260510072833 | 47 | 236 | 0.0 | 1.0 | 0.00 | 0.00 | 0.00 | 71 | 1013.0 |
| 20260510072333 | 47 | 235 | 0.0 | 3.0 | 0.00 | 0.00 | 0.00 | 71 | 1012.9 |
| 20260510071833 | 47 | 276 | 0.0 | 3.0 | 0.00 | 0.00 | 0.00 | 71 | 1012.9 |
| 20260510071333 | 47 | 248 | 0.0 | 2.0 | 0.00 | 0.00 | 0.00 | 71 | 1012.9 |
| 20260510070833 | 47 | 286 | 0.0 | 3.0 | 0.00 | 0.00 | 0.00 | 71 | 1012.7 |
| 20260510070333 | 47 | 319 | 0.0 | 3.0 | 0.00 | 0.00 | 0.00 | 71 | 1012.7 |
| 20260510065833 | 47 | 301 | 0.0 | 3.0 | 0.00 | 0.00 | 0.00 | 70 | 1012.8 |
| 20260510065332 | 47 | 213 | 0.0 | 2.0 | 0.00 | 0.00 | 0.00 | 70 | 1012.7 |
| 20260510064833 | 47 | 299 | 0.0 | 2.0 | 0.00 | 0.00 | 0.00 | 71 | 1012.7 |
| 20260510064333 | 47 | 292 | 0.0 | 3.0 | 0.00 | 0.00 | 0.00 | 73 | 1012.7 |
| 20260510063833 | 47 | 283 | 0.0 | 6.0 | 0.00 | 0.00 | 0.00 | 73 | 1012.7 |
| 20260510063333 | 47 | 290 | 0.0 | 6.0 | 0.00 | 0.00 | 0.00 | 73 | 1012.7 |
| 20260510062833 | 47 | 343 | 0.0 | 1.0 | 0.00 | 0.00 | 0.00 | 74 | 1012.6 |
| 20260510062333 | 47 | 343 | 0.0 | 2.0 | 0.00 | 0.00 | 0.00 | 76 | 1012.6 |
| 20260510061833 | 47 | 347 | 0.0 | 2.0 | 0.00 | 0.00 | 0.00 | 79 | 1012.5 |
| 20260510061333 | 46 | 307 | 0.0 | 2.0 | 0.00 | 0.00 | 0.00 | 81 | 1012.5 |
| 20260510060833 | 45 | 272 | 0.0 | 2.0 | 0.00 | 0.00 | 0.00 | 84 | 1012.4 |
| 20260510060333 | 45 | 258 | 0.0 | 1.0 | 0.00 | 0.00 | 0.00 | 85 | 1012.3 |
| 20260510055833 | 45 | 0 | 0.0 | 0.0 | 0.00 | 0.00 | 0.00 | 85 | 1012.2 |
| 20260510055333 | 45 | 0 | 0.0 | 0.0 | 0.00 | 0.00 | 0.00 | 85 | 1012.0 |
| 20260510054833 | 45 | 0 | 0.0 | 0.0 | 0.00 | 0.00 | 0.00 | 85 | 1011.8 |
| 20260510054333 | 45 | 0 | 0.0 | 0.0 | 0.00 | 0.00 | 0.00 | 85 | 1011.8 |
| 20260510053833 | 45 | 0 | 0.0 | 0.0 | 0.00 | 0.00 | 0.00 | 85 | 1011.6 |
| 20260510053333 | 45 | 0 | 0.0 | 0.0 | 0.00 | 0.00 | 0.00 | 85 | 1011.5 |
| 20260510052833 | 45 | 0 | 0.0 | 0.0 | 0.00 | 0.00 | 0.00 | 85 | 1011.3 |
| 20260510052333 | 45 | 0 | 0.0 | 0.0 | 0.00 | 0.00 | 0.00 | 85 | 1011.2 |
| 20260510051833 | 45 | 0 | 0.0 | 0.0 | 0.00 | 0.00 | 0.00 | 85 | 1011.2 |
| 20260510051333 | 45 | 0 | 0.0 | 0.0 | 0.00 | 0.00 | 0.00 | 85 | 1011.0 |
| 20260510050833 | 45 | 0 | 0.0 | 0.0 | 0.00 | 0.00 | 0.00 | 84 | 1010.7 |
| 20260510050333 | 45 | 0 | 0.0 | 0.0 | 0.00 | 0.00 | 0.00 | 84 | 1010.6 |
| 20260510045833 | 45 | 0 | 0.0 | 0.0 | 0.00 | 0.00 | 0.00 | 83 | 1010.6 |
| 20260510045333 | 45 | 0 | 0.0 | 0.0 | 0.00 | 0.00 | 0.00 | 83 | 1010.5 |
| 20260510044833 | 45 | 0 | 0.0 | 0.0 | 0.00 | 0.00 | 0.00 | 83 | 1010.4 |
| 20260510044333 | 46 | 0 | 0.0 | 0.0 | 0.00 | 0.00 | 0.00 | 82 | 1010.4 |
| 20260510043833 | 46 | 0 | 0.0 | 0.0 | 0.00 | 0.00 | 0.00 | 82 | 1010.3 |
| 20260510043333 | 46 | 0 | 0.0 | 0.0 | 0.00 | 0.00 | 0.00 | 81 | 1010.3 |
| 20260510042833 | 46 | 0 | 0.0 | 0.0 | 0.00 | 0.00 | 0.00 | 81 | 1010.2 |
| 20260510042333 | 46 | 0 | 0.0 | 0.0 | 0.00 | 0.00 | 0.00 | 81 | 1010.2 |
| 20260510041833 | 46 | 0 | 0.0 | 0.0 | 0.00 | 0.00 | 0.00 | 80 | 1010.2 |
| 20260510041332 | 46 | 0 | 0.0 | 0.0 | 0.00 | 0.00 | 0.00 | 80 | 1010.2 |
| 20260510040833 | 47 | 0 | 0.0 | 0.0 | 0.00 | 0.00 | 0.00 | 80 | 1010.0 |
| 20260510040333 | 47 | 0 | 0.0 | 0.0 | 0.00 | 0.00 | 0.00 | 79 | 1010.1 |
| 20260510035833 | 47 | 0 | 0.0 | 0.0 | 0.00 | 0.00 | 0.00 | 79 | 1010.0 |
| 20260510035333 | 47 | 0 | 0.0 | 0.0 | 0.00 | 0.00 | 0.00 | 78 | 1009.9 |
| 20260510034833 | 47 | 0 | 0.0 | 0.0 | 0.00 | 0.00 | 0.00 | 78 | 1009.9 |
| 20260510034333 | 47 | 0 | 0.0 | 0.0 | 0.00 | 0.00 | 0.00 | 77 | 1009.8 |
| 20260510033833 | 48 | 0 | 0.0 | 0.0 | 0.00 | 0.00 | 0.00 | 77 | 1009.7 |
| 20260510033333 | 48 | 0 | 0.0 | 0.0 | 0.00 | 0.00 | 0.00 | 76 | 1009.6 |
| 20260510032833 | 48 | 0 | 0.0 | 0.0 | 0.00 | 0.00 | 0.00 | 76 | 1009.5 |
| 20260510032333 | 48 | 0 | 0.0 | 0.0 | 0.00 | 0.00 | 0.00 | 76 | 1009.4 |
| 20260510031833 | 48 | 0 | 0.0 | 0.0 | 0.00 | 0.00 | 0.00 | 75 | 1009.4 |
| 20260510031333 | 49 | 0 | 0.0 | 0.0 | 0.00 | 0.00 | 0.00 | 75 | 1009.2 |
| 20260510030833 | 49 | 0 | 0.0 | 0.0 | 0.00 | 0.00 | 0.00 | 75 | 1009.2 |
| 20260510030333 | 49 | 0 | 0.0 | 0.0 | 0.00 | 0.00 | 0.00 | 74 | 1009.1 |
| 20260510025833 | 49 | 0 | 0.0 | 0.0 | 0.00 | 0.00 | 0.00 | 73 | 1009.1 |
| 20260510025333 | 49 | 0 | 0.0 | 0.0 | 0.00 | 0.00 | 0.00 | 72 | 1009.0 |
| 20260510024833 | 50 | 0 | 0.0 | 0.0 | 0.00 | 0.00 | 0.00 | 72 | 1008.9 |
| 20260510024333 | 50 | 0 | 0.0 | 0.0 | 0.00 | 0.00 | 0.00 | 71 | 1008.8 |
| 20260510023833 | 50 | 0 | 0.0 | 0.0 | 0.00 | 0.00 | 0.00 | 71 | 1008.6 |
| 20260510023333 | 50 | 0 | 0.0 | 0.0 | 0.00 | 0.00 | 0.00 | 70 | 1008.5 |
| 20260510022833 | 51 | 0 | 0.0 | 0.0 | 0.00 | 0.00 | 0.00 | 70 | 1008.4 |
| 20260510022333 | 51 | 0 | 0.0 | 0.0 | 0.00 | 0.00 | 0.00 | 69 | 1008.4 |
| 20260510021833 | 51 | 0 | 0.0 | 0.0 | 0.00 | 0.00 | 0.00 | 69 | 1008.2 |
| 20260510021333 | 51 | 0 | 0.0 | 0.0 | 0.00 | 0.00 | 0.00 | 68 | 1008.2 |
| 20260510020833 | 52 | 0 | 0.0 | 0.0 | 0.00 | 0.00 | 0.00 | 68 | 1008.1 |
| 20260510020333 | 52 | 0 | 0.0 | 0.0 | 0.00 | 0.00 | 0.00 | 67 | 1008.1 |
| 20260510015833 | 52 | 0 | 0.0 | 0.0 | 0.00 | 0.00 | 0.00 | 66 | 1007.9 |
| 20260510015333 | 52 | 0 | 0.0 | 0.0 | 0.00 | 0.00 | 0.00 | 65 | 1007.8 |
| 20260510014833 | 53 | 0 | 0.0 | 0.0 | 0.00 | 0.00 | 0.00 | 64 | 1007.7 |
| 20260510014333 | 53 | 0 | 0.0 | 0.0 | 0.00 | 0.00 | 0.00 | 64 | 1007.6 |
| 20260510013833 | 53 | 257 | 0.0 | 1.0 | 0.00 | 0.00 | 0.00 | 64 | 1007.5 |
| 20260510013333 | 53 | 257 | 0.0 | 1.0 | 0.00 | 0.00 | 0.00 | 63 | 1007.3 |
| 20260510012833 | 53 | 0 | 0.0 | 0.0 | 0.00 | 0.00 | 0.00 | 63 | 1007.2 |
| 20260510012333 | 53 | 0 | 0.0 | 0.0 | 0.00 | 0.00 | 0.00 | 62 | 1007.1 |
| 20260510011833 | 53 | 265 | 0.0 | 1.0 | 0.00 | 0.00 | 0.00 | 62 | 1007.0 |
| 20260510011333 | 54 | 265 | 0.0 | 2.0 | 0.00 | 0.00 | 0.00 | 62 | 1006.9 |
| 20260510010833 | 54 | 265 | 0.0 | 2.0 | 0.00 | 0.00 | 0.00 | 63 | 1006.9 |
| 20260510010333 | 54 | 0 | 0.0 | 0.0 | 0.00 | 0.00 | 0.00 | 63 | 1006.7 |
| 20260510005833 | 54 | 0 | 0.0 | 0.0 | 0.00 | 0.00 | 0.00 | 63 | 1006.5 |
| 20260510005333 | 54 | 0 | 0.0 | 0.0 | 0.00 | 0.00 | 0.00 | 63 | 1006.6 |
| 20260510004833 | 54 | 0 | 0.0 | 0.0 | 0.00 | 0.00 | 0.00 | 62 | 1006.5 |
| 20260510004333 | 54 | 265 | 0.0 | 1.0 | 0.00 | 0.00 | 0.00 | 62 | 1006.4 |
| 20260510003833 | 54 | 265 | 0.0 | 2.0 | 0.00 | 0.00 | 0.00 | 62 | 1006.2 |
| 20260510003333 | 55 | 171 | 0.0 | 2.0 | 0.00 | 0.00 | 0.00 | 61 | 1006.1 |
| 20260510002833 | 55 | 234 | 0.0 | 3.0 | 0.00 | 0.00 | 0.00 | 61 | 1006.1 |
| 20260510002333 | 55 | 234 | 0.0 | 3.0 | 0.00 | 0.00 | 0.00 | 61 | 1005.9 |
| 20260510001833 | 55 | 254 | 0.0 | 3.0 | 0.00 | 0.00 | 0.00 | 62 | 1005.8 |
| 20260510001333 | 55 | 254 | 0.0 | 3.0 | 0.00 | 0.00 | 0.00 | 62 | 1005.7 |
| 20260510000833 | 55 | 219 | 0.0 | 3.0 | 0.00 | 0.00 | 0.00 | 62 | 1005.6 |
| 20260510000333 | 56 | 180 | 0.0 | 4.0 | 0.00 | 0.00 | 0.00 | 61 | 1005.5 |
| 20260509235833 | 56 | 146 | 1.0 | 4.0 | 0.00 | 0.00 | 0.00 | 60 | 1005.4 |
| 20260509235333 | 57 | 227 | 1.0 | 4.0 | 0.00 | 0.00 | 0.00 | 58 | 1005.3 |
| 20260509234833 | 58 | 220 | 0.0 | 3.0 | 0.00 | 0.00 | 0.00 | 58 | 1005.2 |
| 20260509234333 | 58 | 239 | 1.0 | 6.0 | 0.00 | 0.00 | 0.00 | 57 | 1005.0 |
| 20260509233833 | 59 | 211 | 0.0 | 6.0 | 0.00 | 0.00 | 0.00 | 55 | 1004.9 |
| 20260509233332 | 60 | 220 | 0.0 | 4.0 | 0.00 | 0.00 | 0.00 | 53 | 1004.8 |
| 20260509232833 | 60 | 249 | 1.0 | 4.0 | 0.00 | 0.00 | 0.00 | 53 | 1004.9 |
| 20260509232333 | 61 | 248 | 1.0 | 4.0 | 0.00 | 0.00 | 0.00 | 53 | 1004.7 |
| 20260509231833 | 62 | 206 | 1.0 | 8.0 | 0.00 | 0.00 | 0.00 | 52 | 1004.6 |
| 20260509231333 | 63 | 197 | 1.0 | 8.0 | 0.00 | 0.00 | 0.00 | 49 | 1004.6 |
| 20260509230833 | 65 | 191 | 1.0 | 4.0 | 0.00 | 0.00 | 0.00 | 47 | 1004.5 |
| 20260509230333 | 66 | 227 | 1.0 | 4.0 | 0.00 | 0.00 | 0.00 | 45 | 1004.3 |
| 20260509225833 | 68 | 250 | 1.0 | 6.0 | 0.00 | 0.00 | 0.00 | 44 | 1004.4 |
| 20260509225333 | 70 | 241 | 1.0 | 6.0 | 0.00 | 0.00 | 0.00 | 41 | 1004.2 |
| 20260509224833 | 72 | 333 | 1.0 | 4.0 | 0.00 | 0.00 | 0.00 | 38 | 1004.2 |
| 20260509224332 | 72 | 287 | 1.0 | 4.0 | 0.00 | 0.00 | 0.00 | 37 | 1003.8 |
| 20260509223833 | 72 | 283 | 2.0 | 4.0 | 0.00 | 0.00 | 0.00 | 37 | 1003.5 |
| 20260509223333 | 72 | 260 | 1.0 | 4.0 | 0.00 | 0.00 | 0.00 | 35 | 1003.4 |
| 20260509222832 | 72 | 275 | 2.0 | 7.0 | 0.00 | 0.00 | 0.00 | 35 | 1003.4 |
| 20260509222333 | 73 | 266 | 2.0 | 8.0 | 0.00 | 0.00 | 0.00 | 36 | 1003.3 |
| 20260509221833 | 73 | 286 | 3.0 | 8.0 | 0.00 | 0.00 | 0.00 | 34 | 1003.2 |
| 20260509221333 | 73 | 268 | 1.0 | 7.0 | 0.00 | 0.00 | 0.00 | 35 | 1003.1 |
| 20260509220833 | 74 | 281 | 1.0 | 7.0 | 0.00 | 0.00 | 0.00 | 35 | 1003.1 |
| 20260509220333 | 74 | 287 | 1.0 | 9.0 | 0.00 | 0.00 | 0.00 | 34 | 1002.9 |
| 20260509215833 | 74 | 275 | 3.0 | 9.0 | 0.00 | 0.00 | 0.00 | 33 | 1002.8 |
| 20260509215333 | 74 | 273 | 3.0 | 7.0 | 0.00 | 0.00 | 0.00 | 34 | 1002.8 |
| 20260509214833 | 74 | 277 | 3.0 | 8.0 | 0.00 | 0.00 | 0.00 | 34 | 1002.6 |
| 20260509214333 | 75 | 266 | 1.0 | 8.0 | 0.00 | 0.00 | 0.00 | 34 | 1002.5 |
| 20260509213833 | 75 | 272 | 2.0 | 7.0 | 0.00 | 0.00 | 0.00 | 34 | 1002.4 |
| 20260509213333 | 75 | 264 | 1.0 | 7.0 | 0.00 | 0.00 | 0.00 | 34 | 1002.3 |
| 20260509212833 | 75 | 272 | 3.0 | 9.0 | 0.00 | 0.00 | 0.00 | 32 | 1002.2 |
| 20260509212333 | 75 | 270 | 3.0 | 9.0 | 0.00 | 0.00 | 0.00 | 33 | 1002.3 |
| 20260509211833 | 75 | 263 | 2.0 | 7.0 | 0.00 | 0.00 | 0.00 | 33 | 1002.2 |
| 20260509211333 | 75 | 261 | 2.0 | 7.0 | 0.00 | 0.00 | 0.00 | 36 | 1002.0 |
| 20260509210833 | 75 | 273 | 2.0 | 8.0 | 0.00 | 0.00 | 0.00 | 36 | 1002.1 |
| 20260509210333 | 75 | 275 | 3.0 | 10.0 | 0.00 | 0.00 | 0.00 | 35 | 1002.0 |
| 20260509205833 | 75 | 288 | 1.0 | 10.0 | 0.00 | 0.00 | 0.00 | 36 | 1001.9 |
| 20260509205333 | 75 | 273 | 3.0 | 8.0 | 0.00 | 0.00 | 0.00 | 36 | 1001.9 |
| 20260509204833 | 75 | 274 | 3.0 | 7.0 | 0.00 | 0.00 | 0.00 | 35 | 1001.8 |
| 20260509204332 | 76 | 274 | 2.0 | 10.0 | 0.00 | 0.00 | 0.00 | 36 | 1001.8 |
| 20260509203833 | 76 | 272 | 3.0 | 10.0 | 0.00 | 0.00 | 0.00 | 35 | 1001.8 |
| 20260509203333 | 76 | 275 | 3.0 | 9.0 | 0.00 | 0.00 | 0.00 | 34 | 1001.9 |
| 20260509202833 | 76 | 274 | 2.0 | 6.0 | 0.00 | 0.00 | 0.00 | 36 | 1001.8 |
| 20260509202333 | 76 | 258 | 1.0 | 9.0 | 0.00 | 0.00 | 0.00 | 36 | 1002.0 |
| 20260509201833 | 76 | 262 | 3.0 | 11.0 | 0.00 | 0.00 | 0.00 | 35 | 1001.9 |
| 20260509201333 | 75 | 280 | 3.0 | 11.0 | 0.00 | 0.00 | 0.00 | 37 | 1002.1 |
| 20260509200833 | 75 | 272 | 4.0 | 9.0 | 0.00 | 0.00 | 0.00 | 36 | 1002.2 |
| 20260509200333 | 75 | 249 | 3.0 | 9.0 | 0.00 | 0.00 | 0.00 | 36 | 1002.2 |
| 20260509195833 | 75 | 273 | 2.0 | 8.0 | 0.00 | 0.00 | 0.00 | 36 | 1002.2 |
| 20260509194833 | 75 | 262 | 2.0 | 9.0 | 0.00 | 0.00 | 0.00 | 37 | 1002.1 |
| 20260509194333 | 75 | 283 | 3.0 | 9.0 | 0.00 | 0.00 | 0.00 | 37 | 1002.2 |
| 20260509193833 | 75 | 274 | 3.0 | 9.0 | 0.00 | 0.00 | 0.00 | 35 | 1002.2 |
| 20260509193333 | 75 | 262 | 2.0 | 8.0 | 0.00 | 0.00 | 0.00 | 37 | 1002.2 |
| 20260509192833 | 74 | 277 | 2.0 | 8.0 | 0.00 | 0.00 | 0.00 | 37 | 1002.1 |
| 20260509192333 | 73 | 271 | 2.0 | 7.0 | 0.00 | 0.00 | 0.00 | 36 | 1002.2 |
| 20260509191833 | 73 | 274 | 3.0 | 8.0 | 0.00 | 0.00 | 0.00 | 35 | 1002.2 |
| 20260509191333 | 73 | 276 | 2.0 | 8.0 | 0.00 | 0.00 | 0.00 | 37 | 1002.1 |
| 20260509190833 | 72 | 276 | 3.0 | 8.0 | 0.00 | 0.00 | 0.00 | 37 | 1002.1 |
| 20260509190333 | 72 | 269 | 2.0 | 6.0 | 0.00 | 0.00 | 0.00 | 37 | 1002.2 |
| 20260509185833 | 72 | 267 | 1.0 | 4.0 | 0.00 | 0.00 | 0.00 | 37 | 1002.1 |
| 20260509185333 | 72 | 272 | 1.0 | 5.0 | 0.00 | 0.00 | 0.00 | 37 | 1002.0 |
| 20260509184833 | 72 | 265 | 1.0 | 5.0 | 0.00 | 0.00 | 0.00 | 40 | 1001.9 |
| 20260509184333 | 72 | 255 | 1.0 | 3.0 | 0.00 | 0.00 | 0.00 | 43 | 1001.9 |
| 20260509183833 | 71 | 249 | 0.0 | 3.0 | 0.00 | 0.00 | 0.00 | 43 | 1002.0 |
| 20260509183333 | 71 | 278 | 1.0 | 3.0 | 0.00 | 0.00 | 0.00 | 40 | 1002.1 |
| 20260509182833 | 71 | 277 | 1.0 | 4.0 | 0.00 | 0.00 | 0.00 | 41 | 1002.1 |
| 20260509182333 | 70 | 276 | 0.0 | 4.0 | 0.00 | 0.00 | 0.00 | 41 | 1002.1 |
| 20260509181833 | 71 | 288 | 1.0 | 3.0 | 0.00 | 0.00 | 0.00 | 41 | 1002.1 |
| 20260509181333 | 71 | 284 | 0.0 | 1.0 | 0.00 | 0.00 | 0.00 | 40 | 1002.1 |
| 20260509180833 | 71 | 0 | 0.0 | 0.0 | 0.00 | 0.00 | 0.00 | 40 | 1002.2 |
| 20260509180333 | 71 | 277 | 0.0 | 4.0 | 0.00 | 0.00 | 0.00 | 41 | 1002.3 |
| 20260509175833 | 71 | 277 | 1.0 | 4.0 | 0.00 | 0.00 | 0.00 | 39 | 1002.4 |
| 20260509175333 | 71 | 279 | 1.0 | 4.0 | 0.00 | 0.00 | 0.00 | 41 | 1002.3 |
| 20260509174833 | 71 | 260 | 0.0 | 2.0 | 0.00 | 0.00 | 0.00 | 43 | 1002.3 |
| 20260509174333 | 71 | 299 | 0.0 | 4.0 | 0.00 | 0.00 | 0.00 | 41 | 1002.4 |
| 20260509173833 | 71 | 286 | 1.0 | 4.0 | 0.00 | 0.00 | 0.00 | 44 | 1002.4 |
| 20260509173333 | 71 | 266 | 2.0 | 5.0 | 0.00 | 0.00 | 0.00 | 41 | 1002.6 |
| 20260509172833 | 71 | 286 | 2.0 | 5.0 | 0.00 | 0.00 | 0.00 | 41 | 1002.5 |
| 20260509172333 | 71 | 251 | 1.0 | 4.0 | 0.00 | 0.00 | 0.00 | 41 | 1002.5 |
| 20260509171833 | 72 | 258 | 1.0 | 4.0 | 0.00 | 0.00 | 0.00 | 40 | 1002.6 |
| 20260509170833 | 72 | 285 | 1.0 | 5.0 | 0.00 | 0.00 | 0.00 | 43 | 1002.7 |
| 20260509170333 | 71 | 278 | 1.0 | 6.0 | 0.00 | 0.00 | 0.00 | 43 | 1002.5 |
| 20260509165833 | 71 | 270 | 2.0 | 6.0 | 0.00 | 0.00 | 0.00 | 42 | 1002.6 |
| 20260509165333 | 71 | 278 | 2.0 | 6.0 | 0.00 | 0.00 | 0.00 | 44 | 1002.5 |
| 20260509164833 | 71 | 269 | 1.0 | 6.0 | 0.00 | 0.00 | 0.00 | 50 | 1002.4 |
| 20260509164333 | 71 | 275 | 1.0 | 3.0 | 0.00 | 0.00 | 0.00 | 52 | 1002.4 |
| 20260509163833 | 70 | 281 | 1.0 | 4.0 | 0.00 | 0.00 | 0.00 | 54 | 1002.5 |
| 20260509163333 | 70 | 288 | 1.0 | 4.0 | 0.00 | 0.00 | 0.00 | 57 | 1002.5 |
| 20260509162833 | 70 | 264 | 1.0 | 4.0 | 0.00 | 0.00 | 0.00 | 58 | 1002.6 |
| 20260509162333 | 69 | 224 | 0.0 | 4.0 | 0.00 | 0.00 | 0.00 | 58 | 1002.4 |
| 20260509161833 | 70 | 265 | 1.0 | 6.0 | 0.00 | 0.00 | 0.00 | 58 | 1002.5 |
| 20260509161332 | 70 | 256 | 1.0 | 6.0 | 0.00 | 0.00 | 0.00 | 59 | 1002.7 |
| 20260509160833 | 69 | 223 | 0.0 | 2.0 | 0.00 | 0.00 | 0.00 | 62 | 1002.6 |
| 20260509160333 | 69 | 220 | 0.0 | 3.0 | 0.00 | 0.00 | 0.00 | 62 | 1002.4 |
| 20260509155833 | 69 | 210 | 1.0 | 4.0 | 0.00 | 0.00 | 0.00 | 59 | 1002.4 |
| 20260509155333 | 69 | 201 | 1.0 | 4.0 | 0.00 | 0.00 | 0.00 | 60 | 1002.4 |
| 20260509154833 | 69 | 293 | 1.0 | 5.0 | 0.00 | 0.00 | 0.00 | 60 | 1002.3 |
| 20260509154333 | 68 | 230 | 1.0 | 5.0 | 0.00 | 0.00 | 0.00 | 60 | 1002.4 |
| 20260509153833 | 68 | 227 | 1.0 | 5.0 | 0.00 | 0.00 | 0.00 | 63 | 1002.4 |
| 20260509153332 | 68 | 244 | 0.0 | 5.0 | 0.00 | 0.00 | 0.00 | 63 | 1002.4 |
| 20260509152833 | 67 | 200 | 0.0 | 5.0 | 0.00 | 0.00 | 0.00 | 63 | 1002.4 |
| 20260509152333 | 67 | 283 | 1.0 | 7.0 | 0.00 | 0.00 | 0.00 | 64 | 1002.3 |
| 20260509151833 | 67 | 219 | 1.0 | 7.0 | 0.00 | 0.00 | 0.00 | 65 | 1002.4 |
| 20260509151333 | 67 | 242 | 1.0 | 3.0 | 0.00 | 0.00 | 0.00 | 65 | 1002.5 |
| 20260509150833 | 67 | 267 | 0.0 | 1.0 | 0.00 | 0.00 | 0.00 | 67 | 1002.4 |
| 20260509150333 | 67 | 263 | 0.0 | 4.0 | 0.00 | 0.00 | 0.00 | 67 | 1002.3 |
| 20260509145833 | 66 | 235 | 1.0 | 6.0 | 0.00 | 0.00 | 0.00 | 67 | 1002.3 |
| 20260509145333 | 66 | 208 | 1.0 | 6.0 | 0.00 | 0.00 | 0.00 | 67 | 1002.4 |